Weather History for KMDD - May, 2013

Change the Weather History Date:

Saturday, May 11, 2013

  Actual Average (KMAF) Record (KMAF)
Temperature  
Mean Temperature 67 °F 72 °F  
Max Temperature 79 °F 86 °F 102 °F (2000)
Min Temperature 55 °F 58 °F 42 °F (1946)
Cooling Degree Days 2 8  
Month to date cooling degree days 73  
Year to date cooling degree days 181  
Growing Degree Days 17 (Base 50)    
Moisture  
Dew Point 43 °F    
Average Humidity 47    
Maximum Humidity 80    
Minimum Humidity 21    
Precipitation  
Precipitation 0.00 in 0.05 in 1.36 in (1958)
Month to date precipitation 0.40  
Year to date precipitation 2.92  
Sea Level Pressure  
Sea Level Pressure 30.23 in    
Wind  
Wind Speed 6 mph (NE)    
Max Wind Speed 21 mph    
Max Gust Speed 25 mph    
Visibility 10 miles    
Events      
T = Trace of Precipitation, MM = Missing Value Source: NWS Daily Summary

Daily Weather History Graph

Daily Weather History Graph

Search for Another Location

Airport or City:

Trip Planner

Search our weather history database for the weather conditions in past years. The results will help you decide how hot, cold, wet, or windy it might be!

Date:

Astronomy

May. 11, 2013 Rise Set
Actual Time 6:53 AM CDT 8:36 PM CDT
Civil Twilight 6:27 AM CDT 9:03 PM CDT
Nautical Twilight 5:54 AM CDT 9:35 PM CDT
Astronomical Twilight 5:21 AM CDT 10:09 PM CDT
Moon 8:04 AM CDT (5/11) 10:16 PM CDT (5/11)
Length of Visible Light 14h 36m
Length of Day
13h 42m
Waxing Crescent, 3% of the Moon is Illuminated
May 11
Waxing Crescent
May 17
First Quarter
May 24
Full
May 31
Last Quarter
Jun 8
New

Hourly Weather History & Observations

Time (CDT) Temp. Dew Point Humidity Pressure Visibility Wind Dir Wind Speed Gust Speed Precip Events Conditions
12:15 AM 62.6 °F 50.4 °F 64% 30.19 in 10.0 mi North 6.9 mph - N/A   Clear
12:35 AM 61.7 °F 50.4 °F 66% 30.19 in 10.0 mi North 4.6 mph - N/A   Clear
12:55 AM 61.7 °F 50.2 °F 66% 30.19 in 10.0 mi North 5.8 mph - N/A   Clear
1:15 AM 61.3 °F 50.0 °F 66% 30.19 in 10.0 mi North 6.9 mph - N/A   Clear
1:35 AM 60.8 °F 50.2 °F 68% 30.19 in 10.0 mi NNE 4.6 mph - N/A   Clear
1:55 AM 60.8 °F 50.2 °F 68% 30.20 in 10.0 mi North 4.6 mph - N/A   Clear
2:15 AM 60.1 °F 50.4 °F 70% 30.19 in 10.0 mi NNE 3.5 mph - N/A   Clear
2:35 AM 59.7 °F 50.5 °F 72% 30.20 in 10.0 mi Calm Calm - N/A   Clear
2:55 AM 58.6 °F 50.0 °F 73% 30.19 in 10.0 mi NE 3.5 mph - N/A   Clear
3:15 AM 58.1 °F 50.2 °F 75% 30.19 in 10.0 mi Calm Calm - N/A   Clear
3:35 AM 57.7 °F 50.0 °F 75% 30.19 in 10.0 mi Calm Calm - N/A   Clear
3:55 AM 57.6 °F 50.0 °F 76% 30.19 in 10.0 mi Calm Calm - N/A   Clear
4:15 AM 56.3 °F 49.5 °F 78% 30.19 in 10.0 mi Calm Calm - N/A   Clear
4:35 AM 56.3 °F 49.5 °F 78% 30.20 in 10.0 mi Calm Calm - N/A   Clear
4:55 AM 56.3 °F 49.3 °F 77% 30.21 in 10.0 mi Calm Calm - N/A   Clear
5:15 AM 55.4 °F 49.1 °F 79% 30.21 in 10.0 mi Calm Calm - N/A   Clear
5:35 AM 55.2 °F 48.9 °F 79% 30.22 in 10.0 mi Calm Calm - N/A   Clear
5:55 AM 55.4 °F 48.7 °F 78% 30.22 in 10.0 mi Calm Calm - N/A   Clear
6:15 AM 55.0 °F 48.7 °F 79% 30.23 in 10.0 mi Calm Calm - N/A   Clear
6:35 AM 55.4 °F 49.1 °F 79% 30.23 in 10.0 mi Calm Calm - N/A   Clear
6:55 AM 55.6 °F 49.3 °F 79% 30.24 in 10.0 mi North 3.5 mph - N/A   Clear
7:15 AM 55.4 °F 49.3 °F 80% 30.25 in 10.0 mi Calm Calm - N/A   Clear
7:35 AM 55.8 °F 49.3 °F 79% 30.25 in 10.0 mi North 3.5 mph - N/A   Clear
7:55 AM 57.0 °F 49.5 °F 76% 30.26 in 10.0 mi Calm Calm - N/A   Clear
8:15 AM 59.2 °F 49.8 °F 71% 30.26 in 10.0 mi NNE 4.6 mph - N/A   Clear
8:35 AM 60.6 °F 50.0 °F 68% 30.26 in 10.0 mi NNE 5.8 mph - N/A   Clear
8:55 AM 62.2 °F 50.4 °F 65% 30.27 in 10.0 mi Calm Calm - N/A   Clear
9:15 AM 63.9 °F 49.6 °F 60% 30.27 in 10.0 mi NNE 4.6 mph - N/A   Clear
9:35 AM 65.7 °F 47.7 °F 52% 30.27 in 10.0 mi NE 6.9 mph - N/A   Clear
9:55 AM 66.6 °F 48.2 °F 52% 30.27 in 10.0 mi North 5.8 mph - N/A   Clear
10:15 AM 67.5 °F 48.2 °F 50% 30.27 in 10.0 mi NNE 6.9 mph - N/A   Clear
10:35 AM 68.9 °F 48.7 °F 49% 30.26 in 10.0 mi NE 9.2 mph - N/A   Clear
10:55 AM 69.6 °F 45.7 °F 42% 30.27 in 10.0 mi ENE 9.2 mph - N/A   Clear
11:15 AM 70.9 °F 43.2 °F 37% 30.27 in 10.0 mi ENE 8.1 mph - N/A   Clear
11:35 AM 72.0 °F 43.2 °F 35% 30.27 in 10.0 mi NE 10.4 mph 17.3 mph N/A   Clear
11:55 AM 71.8 °F 41.2 °F 33% 30.27 in 10.0 mi ENE 10.4 mph 20.7 mph N/A   Clear
12:15 PM 73.6 °F 37.9 °F 27% 30.27 in 10.0 mi ENE 11.5 mph 16.1 mph N/A   Clear
12:35 PM 74.3 °F 36.0 °F 25% 30.26 in 10.0 mi NE 9.2 mph 21.9 mph N/A   Clear
12:55 PM 74.3 °F 34.5 °F 23% 30.26 in 10.0 mi NE 16.1 mph 21.9 mph N/A   Clear
1:15 PM 75.6 °F 36.7 °F 24% 30.26 in 10.0 mi NE 15.0 mph 19.6 mph N/A   Clear
1:35 PM 76.3 °F 33.1 °F 21% 30.25 in 10.0 mi ENE 13.8 mph 21.9 mph N/A   Scattered Clouds
1:55 PM 76.6 °F 34.5 °F 22% 30.25 in 10.0 mi NE 8.1 mph - N/A   Scattered Clouds
2:15 PM 77.0 °F 37.4 °F 24% 30.24 in 10.0 mi NE 9.2 mph 23.0 mph N/A   Scattered Clouds
2:35 PM 75.2 °F 39.2 °F 27% 30.24 in 10.0 mi NNE 9.2 mph 21.9 mph N/A   Scattered Clouds
2:55 PM 76.8 °F 38.7 °F 25% 30.23 in 10.0 mi NE 10.4 mph 21.9 mph N/A   Scattered Clouds
3:15 PM 78.4 °F 37.8 °F 23% 30.22 in 10.0 mi NNE 9.2 mph - N/A   Scattered Clouds
3:35 PM 76.3 °F 38.5 °F 26% 30.22 in 10.0 mi NE 12.7 mph 19.6 mph N/A   Mostly Cloudy
3:55 PM 76.5 °F 36.9 °F 24% 30.21 in 10.0 mi NNE 12.7 mph 19.6 mph N/A   Overcast
4:15 PM 77.2 °F 37.2 °F 24% 30.20 in 10.0 mi NNE 9.2 mph 19.6 mph N/A   Mostly Cloudy
4:35 PM 77.0 °F 37.0 °F 24% 30.19 in 10.0 mi East 9.2 mph 20.7 mph N/A   Scattered Clouds
4:55 PM 78.6 °F 36.3 °F 22% 30.19 in 10.0 mi NE 10.4 mph 20.7 mph N/A   Scattered Clouds
5:15 PM 79.2 °F 36.5 °F 22% 30.18 in 10.0 mi NE 15.0 mph 20.7 mph N/A   Scattered Clouds
5:35 PM 78.1 °F 37.4 °F 23% 30.18 in 10.0 mi NE 15.0 mph 21.9 mph N/A   Scattered Clouds
5:55 PM 77.7 °F 36.3 °F 22% 30.19 in 10.0 mi NE 10.4 mph - N/A   Scattered Clouds
6:15 PM 77.0 °F 36.3 °F 23% 30.19 in 10.0 mi NE 15.0 mph 19.6 mph N/A   Scattered Clouds
6:35 PM 75.7 °F 40.3 °F 28% 30.19 in 10.0 mi NNE 20.7 mph 25.3 mph N/A   Mostly Cloudy
6:55 PM 76.5 °F 40.1 °F 27% 30.19 in 10.0 mi NE 17.3 mph - N/A   Mostly Cloudy
7:15 PM 76.1 °F 39.2 °F 26% 30.20 in 10.0 mi NNE 13.8 mph 21.9 mph N/A   Scattered Clouds
7:35 PM 75.2 °F 38.8 °F 27% 30.20 in 10.0 mi NNE 12.7 mph 18.4 mph N/A   Scattered Clouds
7:55 PM 74.3 °F 38.8 °F 28% 30.21 in 10.0 mi NE 12.7 mph 18.4 mph N/A   Scattered Clouds
8:15 PM 73.9 °F 38.7 °F 28% 30.21 in 10.0 mi NE 9.2 mph - N/A   Mostly Cloudy
8:35 PM 73.0 °F 38.5 °F 29% 30.21 in 10.0 mi NE 6.9 mph - N/A   Clear
8:55 PM 71.4 °F 38.5 °F 30% 30.22 in 10.0 mi NE 3.5 mph - N/A   Clear
9:15 PM 69.8 °F 38.5 °F 32% 30.22 in 10.0 mi NE 3.5 mph - N/A   Clear
9:35 PM 68.9 °F 38.5 °F 33% 30.23 in 10.0 mi NE 3.5 mph - N/A   Scattered Clouds
9:55 PM 68.0 °F 38.5 °F 34% 30.24 in 10.0 mi NE 3.5 mph - N/A   Clear
10:15 PM 68.9 °F 38.8 °F 33% 30.25 in 10.0 mi East 4.6 mph - N/A   Scattered Clouds
10:35 PM 67.3 °F 39.2 °F 36% 30.26 in 10.0 mi NNE 3.5 mph - N/A   Mostly Cloudy
10:55 PM 67.5 °F 39.2 °F 36% 30.26 in 10.0 mi Calm Calm - N/A   Mostly Cloudy
11:15 PM 67.1 °F 39.7 °F 37% 30.26 in 10.0 mi Calm Calm - N/A   Mostly Cloudy
11:55 PM 66.4 °F 41.0 °F 40% 30.27 in 10.0 mi Calm Calm - N/A   Overcast